Jackson, TN

3:06 PM CDT on March 24, 2017 (GMT -0500)
McKellar-Sipes Regional

Weather History for KMKL - December, 2012

Change the Weather History Date:

Saturday, December 8, 2012

  Actual Average Record
Temperature  
Mean Temperature 61 °F 42 °F  
Max Temperature 63 °F 52 °F 71 °F (1966)
Min Temperature 59 °F 32 °F 11 °F (2006)
Degree Days  
Heating Degree Days 4 23  
Month to date heating degree days 38 174  
Since 1 July heating degree days 845 841  
Cooling Degree Days 0 0  
Month to date cooling degree days 3 0  
Year to date cooling degree days 1934 1697  
Growing Degree Days 10 (Base 50)    
Moisture  
Dew Point 58 °F    
Average Humidity 94    
Maximum Humidity 97    
Minimum Humidity 90    
Precipitation  
Precipitation 0.44 in 0.18 in 2.88 in (1972)
Month to date precipitation 0.70 1.46  
Year to date precipitation 38.33 49.38  
Snow  
Snow 0.00 in - - ()
Month to date snowfall 0.0  
Snow Depth 0.00 in    
Sea Level Pressure  
Sea Level Pressure 29.92 in    
Wind  
Wind Speed 4 mph (SSW)    
Max Wind Speed 13 mph    
Max Gust Speed 17 mph    
Visibility 7 miles    
Events Rain , Thunderstorm    
T = Trace of Precipitation, MM = Missing Value Source: NWS Daily Summary

Daily Weather History Graph

Daily Weather History Graph

Search for Another Location

Airport or City:

Trip Planner

Search our weather history database for the weather conditions in past years. The results will help you decide how hot, cold, wet, or windy it might be!

Date:

Astronomy

Dec. 08, 2012 Rise Set
Actual Time 6:53 AM CST 4:42 PM CST
Civil Twilight 6:24 AM CST 5:10 PM CST
Nautical Twilight 5:53 AM CST 5:42 PM CST
Astronomical Twilight 5:22 AM CST 6:13 PM CST
Moon 1:26 AM CST (12/8) 1:04 PM CST (12/8)
Length of Visible Light 10h 45m
Length of Day
9h 49m
Waning Crescent, 28% of the Moon is Illuminated
Dec 8
Waning Crescent
Dec 13
New
Dec 19
First Quarter
Dec 28
Full
Jan 4
Last Quarter

Hourly Weather History & Observations

Time (CST) Temp. Dew Point Humidity Pressure Visibility Wind Dir Wind Speed Gust Speed Precip Events Conditions
12:53 AM 60.1 °F 57.9 °F 93% 29.88 in 10.0 mi South 5.8 mph - N/A   Overcast
1:17 AM 60.8 °F 57.2 °F 88% 29.89 in 10.0 mi South 5.8 mph - N/A   Overcast
1:53 AM 60.1 °F 57.9 °F 93% 29.89 in 10.0 mi South 6.9 mph - N/A   Overcast
2:53 AM 60.1 °F 57.9 °F 93% 29.88 in 10.0 mi South 8.1 mph - N/A   Overcast
3:53 AM 60.1 °F 57.9 °F 93% 29.88 in 10.0 mi South 8.1 mph - N/A   Overcast
4:53 AM 60.1 °F 57.0 °F 90% 29.88 in 10.0 mi South 8.1 mph - N/A   Overcast
5:53 AM 60.1 °F 57.0 °F 90% 29.88 in 10.0 mi South 9.2 mph - N/A   Mostly Cloudy
6:53 AM 60.1 °F 57.0 °F 90% 29.90 in 10.0 mi SW 5.8 mph - 0.05 in Thunderstorm Overcast
6:58 AM 60.8 °F 57.2 °F 88% 29.91 in 10.0 mi SW 5.8 mph - N/A Thunderstorm Overcast
7:20 AM 59.0 °F 57.2 °F 94% 29.92 in 5.0 mi West 5.8 mph - 0.05 in Rain , Thunderstorm Thunderstorms and Rain
7:28 AM 59.0 °F 57.2 °F 94% 29.92 in 1.8 mi WSW 3.5 mph - 0.10 in Rain , Thunderstorm Heavy Thunderstorms and Rain
7:41 AM 59.0 °F 57.2 °F 94% 29.93 in 1.8 mi WNW 4.6 mph - 0.14 in Rain , Thunderstorm Heavy Thunderstorms and Rain
7:53 AM 59.0 °F 57.9 °F 96% 29.92 in 2.0 mi Calm Calm - 0.18 in Rain , Thunderstorm Light Thunderstorms and Rain
8:03 AM 59.0 °F 57.2 °F 94% 29.93 in 5.0 mi WSW 3.5 mph - 0.00 in Thunderstorm Overcast
8:26 AM 59.0 °F 57.2 °F 94% 29.94 in 7.0 mi SSW 4.6 mph - 0.00 in   Overcast
8:33 AM 59.0 °F 57.2 °F 94% 29.94 in 3.0 mi SSW 3.5 mph - 0.00 in Rain Light Rain
8:40 AM 59.0 °F 57.2 °F 94% 29.95 in 3.0 mi SSW 4.6 mph - 0.00 in Rain Light Rain
8:45 AM 59.0 °F 57.2 °F 94% 29.95 in 3.0 mi SW 4.6 mph - 0.00 in Thunderstorm Overcast
8:53 AM 59.0 °F 57.9 °F 96% 29.95 in 2.0 mi South 4.6 mph - 0.01 in Rain , Thunderstorm Light Rain
9:01 AM 59.0 °F 57.2 °F 94% 29.96 in 1.8 mi Calm Calm - 0.00 in Rain , Thunderstorm Light Rain
9:06 AM 59.0 °F 57.2 °F 94% 29.96 in 3.0 mi SW 4.6 mph - 0.00 in Rain , Thunderstorm Light Rain
9:09 AM 59.0 °F 57.2 °F 94% 29.96 in 2.0 mi SW 4.6 mph - 0.00 in   Overcast
9:39 AM 59.0 °F 57.2 °F 94% 29.96 in 2.0 mi Calm Calm - 0.05 in Rain , Thunderstorm Thunderstorms and Rain
9:49 AM 59.0 °F 57.2 °F 94% 29.95 in 1.0 mi Calm Calm - 0.16 in Rain , Thunderstorm Heavy Thunderstorms and Rain
9:53 AM 59.0 °F 57.9 °F 96% 29.95 in 1.0 mi Calm Calm - 0.18 in Rain , Thunderstorm Heavy Rain
10:01 AM 60.8 °F 59.0 °F 94% 29.96 in 2.0 mi Calm Calm - 0.00 in Rain , Thunderstorm Light Rain
10:05 AM 60.8 °F 59.0 °F 94% 29.96 in 3.0 mi Calm Calm - 0.00 in Rain Light Rain
10:17 AM 60.8 °F 59.0 °F 94% 29.95 in 8.0 mi South 5.8 mph - 0.00 in   Overcast
10:39 AM 60.8 °F 57.2 °F 88% 29.95 in 10.0 mi South 4.6 mph - 0.00 in   Overcast
10:53 AM 60.1 °F 59.0 °F 96% 29.94 in 8.0 mi SSE 3.5 mph - 0.00 in Rain Light Rain
11:51 AM 60.8 °F 59.0 °F 94% 29.92 in 10.0 mi South 4.6 mph - 0.01 in   Overcast
11:53 AM 61.0 °F 59.0 °F 93% 29.92 in 10.0 mi South 5.8 mph - 0.01 in   Overcast
12:26 PM 60.8 °F 59.0 °F 94% 29.90 in 10.0 mi South 4.6 mph - N/A   Overcast
12:30 PM 60.8 °F 59.0 °F 94% 29.91 in 10.0 mi South 4.6 mph - N/A   Overcast
12:53 PM 61.0 °F 59.0 °F 93% 29.89 in 10.0 mi SW 4.6 mph - N/A   Overcast
1:53 PM 62.1 °F 59.0 °F 90% 29.88 in 10.0 mi SSW 5.8 mph - 0.00 in   Overcast
2:49 PM 62.6 °F 59.0 °F 88% 29.89 in 10.0 mi SSW 5.8 mph - N/A   Overcast
2:53 PM 62.1 °F 59.0 °F 90% 29.88 in 10.0 mi SSW 6.9 mph - N/A   Overcast
3:31 PM 62.6 °F 59.0 °F 88% 29.89 in 10.0 mi SSW 4.6 mph - N/A   Overcast
3:53 PM 62.1 °F 59.0 °F 90% 29.89 in 10.0 mi South 3.5 mph - N/A   Overcast
4:53 PM 61.0 °F 59.0 °F 93% 29.89 in 10.0 mi South 3.5 mph - N/A   Overcast
5:50 PM 60.8 °F 59.0 °F 94% 29.91 in 10.0 mi Calm Calm - N/A   Overcast
5:53 PM 61.0 °F 59.0 °F 93% 29.91 in 10.0 mi Calm Calm - N/A   Overcast
6:11 PM 60.8 °F 59.0 °F 94% 29.92 in 10.0 mi Calm Calm - N/A   Overcast
6:53 PM 60.1 °F 59.0 °F 96% 29.92 in 10.0 mi Calm Calm - N/A   Overcast
7:53 PM 60.1 °F 59.0 °F 96% 29.92 in 8.0 mi Calm Calm - N/A   Overcast
8:39 PM 60.8 °F 59.0 °F 94% 29.93 in 4.0 mi Calm Calm - N/A   Overcast
8:53 PM 60.1 °F 59.0 °F 96% 29.92 in 6.0 mi Calm Calm - N/A   Overcast
9:53 PM 60.1 °F 59.0 °F 96% 29.93 in 6.0 mi Calm Calm - N/A   Overcast
10:53 PM 60.1 °F 59.0 °F 96% 29.93 in 4.0 mi Calm Calm - N/A   Overcast
11:03 PM 60.8 °F 59.0 °F 94% 29.93 in 6.0 mi Calm Calm - N/A   Overcast
11:31 PM 60.8 °F 59.0 °F 94% 29.93 in 7.0 mi Calm Calm - N/A   Overcast
11:45 PM 60.8 °F 59.0 °F 94% 29.93 in 5.0 mi Calm Calm - 0.01 in Rain Light Rain
11:53 PM 60.1 °F 59.0 °F 96% 29.92 in 6.0 mi ESE 3.5 mph - 0.01 in Rain Light Rain